Location: Coulournat
(45.5652°N, 1.9368°E)
Time: 05:50:29
(UTC+00:00)

Daily predictions for brighter satellites

Satellite Brightness Start Highest point End
(mag) Time Altitude Azimuth Time Altitude Azimuth Time Altitude Azimuth
NOSS 0 Rocket 4.5 00:08:01 10° NNW 00:14:08 54° ENE 00:15:54 41° ESE
CZ-4 R/B 4.3 00:10:05 10° NNE 00:14:24 58° ENE 00:14:24 58° ENE
CZ-2D R/B 4.1 00:12:24 10° NE 00:15:52 17° E 00:16:30 17° E
Lacrosse 4 Rocket 2.5 00:17:22 43° N 00:17:22 43° N 00:20:26 10° NNE
COSMOS 2428 2.6 00:11:04 10° NNW 00:16:51 85° ENE 00:16:52 85° ENE
Cosmos 2360 Rocket 3.4 00:13:43 10° NW 00:17:41 30° W 00:17:41 30° W
Lacrosse 5 4.1 00:15:30 10° WNW 00:16:28 14° W 00:16:28 14° W
Cosmos 1503 Rocket 4.1 00:21:17 78° NNE 00:21:17 78° NNE 00:26:20 10° NNE
Meteor 2-9 Rocket 4.1 00:27:29 84° NW 00:27:29 84° NW 00:33:06 10° N
Cosmos 1782 Rocket 4.4 00:30:21 47° NNW 00:30:21 47° NNW 00:33:35 10° N
Cosmos 2297 Rocket 3.4 00:30:52 29° E 00:30:52 29° E 00:35:32 10° NE
Cosmos 2219 4.1 00:32:41 35° E 00:32:41 35° E 00:37:31 10° NE
Cosmos 1980 4.3 00:27:48 10° NNW 00:33:22 51° ENE 00:34:49 41° ESE
Cosmos 1464 Rocket 3.9 00:34:33 71° SW 00:35:05 76° W 00:41:20 10° N
Cosmos 2333 Rocket 2.5 00:30:42 10° NNW 00:35:43 54° W 00:35:43 54° W
Cosmos 1975 4.3 00:41:49 32° NNW 00:41:49 32° NNW 00:44:25 10° N
Cosmos 2237 Rocket 2.7 00:37:36 10° NNW 00:43:11 56° ENE 00:44:32 45° ESE
Helios 1B rocket 3.3 00:50:25 10° N 00:53:28 47° NNW 00:53:28 47° NNW
Nadezhda 4 Rocket 3.9 00:52:05 10° NNW 00:58:22 71° W 00:58:57 66° SW
ATLAS 3B R/B 3.8 00:54:43 21° W 00:58:28 36° NW 01:04:36 10° NNE
Cosmos 1538 Rocket 4.3 00:54:07 10° NNW 00:59:15 60° ENE 00:59:58 54° ESE
In-Cosmos 22 4.1 00:54:58 10° N 01:00:37 77° E 01:01:07 70° SE
Okean 2 Rocket 3.5 01:02:15 61° NNW 01:02:15 61° NNW 01:06:04 10° N
SL-16 R/B 3.0 00:59:59 35° SE 01:02:29 57° ENE 01:08:36 10° N
Cosmos 2034 Rocket 4.0 01:02:10 60° WSW 01:02:56 66° W 01:09:14 10° N
Cosmos 1707 4.1 01:01:49 10° NNW 01:04:13 35° NNW 01:04:13 35° NNW
USA 215 4.1 01:00:38 10° ENE 01:06:21 31° SE 01:06:48 31° SE
Cosmos 773 Rocket 3.9 01:02:36 10° NNW 01:07:22 71° WNW 01:07:22 71° WNW
Cosmos 1092 Rocket 3.9 01:05:19 10° N 01:11:36 88° W 01:12:41 64° S
Meteor 1-12 Rocket 4.2 01:11:31 67° SW 01:12:13 76° WNW 01:18:16 10° N
Cosmos 1300 Rocket 4.1 01:13:42 52° NNW 01:13:42 52° NNW 01:17:15 10° N
Resurs 1-4 Rocket 2.5 01:08:38 10° NNE 01:13:47 50° E 01:14:25 48° ESE
Uosat 12 SS-18 rocket 4.3 01:18:27 70° ESE 01:18:27 70° ESE 01:22:47 10° NE
Okean 1 Rocket 3.6 01:18:56 51° E 01:18:56 51° E 01:22:59 10° NNE
Meteor 1-15 Rocket 4.4 01:17:58 56° SE 01:18:53 64° E 01:24:26 10° NNE
Cosmos 2227 Rocket 2.3 01:19:04 57° SE 01:19:42 61° ESE 01:25:17 10° NNE
Cosmos 1674 3.6 01:18:44 10° N 01:21:38 46° NNE 01:21:38 46° NNE
DELTA 2 DEB (DPAF) 4.1 01:25:26 78° NNW 01:25:26 78° NNW 01:29:36 10° NNW
Cosmos 1733 4.5 01:27:32 34° E 01:27:32 34° E 01:30:48 10° NNE
UNK 3.7 01:27:34 72° ESE 01:27:55 76° ENE 01:32:36 10° N
Cosmos 2151 Rocket 4.1 01:33:15 49° WNW 01:33:15 49° WNW 01:37:09 10° N
Cosmos 2219 Rocket 3.9 01:33:45 10° NW 01:36:25 19° W 01:36:25 19° W
USA 267 4.3 01:33:08 10° E 01:39:15 45° NNE 01:45:24 10° NW
ATLAS 3B CENTAUR R/B 4.5 01:40:21 31° S 01:40:21 31° S 01:46:58 10° SE
SJ 16-02 2.1 01:40:06 42° ESE 01:40:25 43° ESE 01:44:37 10° NNE
Cosmos 2082 4.1 01:39:45 43° SSE 01:40:59 52° ESE 01:46:26 10° NE
Cosmos 1680 Rocket 4.3 01:37:01 10° NNW 01:42:06 49° ENE 01:45:53 17° SE
Cosmos 2344 4.4 01:35:37 10° NW 01:45:19 76° WSW 01:58:55 10° SSE
Timation 2 Rocket 4.4 01:44:08 38° WSW 01:45:58 49° NW 01:51:50 10° NNE
DNEPR-1 R/B 3.8 01:42:23 10° NW 01:48:13 88° WSW 01:49:48 45° SSE
IRAS Rocket 4.2 01:48:36 56° SSW 01:49:29 64° WSW 01:55:03 10° NNW
SL-16 R/B 2.4 01:46:54 10° NNW 01:52:37 72° ENE 01:56:45 19° SE
Cosmos 1455 Rocket 4.3 01:51:23 28° SE 01:52:46 35° E 01:56:48 10° NNE
Cosmos 1461 3.9 01:52:47 36° SE 01:53:05 37° ESE 01:57:15 10° NE
SL-4 R/B 3.0 01:54:33 30° E 01:54:33 30° E 01:56:29 10° ESE
Lacrosse 4 Rocket 4.2 01:54:54 10° NW 01:55:49 11° NW 01:56:43 10° NNW
Meteor 1-24 Rocket 3.8 01:50:48 10° N 01:56:17 69° ENE 01:58:48 32° SSE
CZ-2D R/B 2.2 01:50:59 10° N 01:56:28 74° WNW 01:57:49 52° SW
IRS-1D 3.9 01:51:52 10° NNE 01:56:51 56° E 01:58:31 38° SSE
GEOS 3 Rocket 4.3 01:51:56 10° NNE 01:57:07 48° NW 01:59:07 33° W
NPP 3.6 01:52:29 10° NNE 01:57:54 83° WNW 01:59:17 52° SSW
ADEOS II 2.7 01:54:14 10° NNE 01:59:22 51° E 02:01:26 33° SSE
Cosmos 1892 Rocket 4.0 01:57:01 10° N 02:01:28 61° E 02:03:00 38° SE
CZ-4B R/B 3.4 01:57:53 10° NNE 02:02:40 71° ESE 02:03:51 49° S
SL-24 R/B 4.4 02:01:32 45° SSE 02:03:02 79° E 02:08:04 10° N
Meteor 2-5 Rocket 3.6 01:58:27 10° NNW 02:04:06 78° W 02:05:59 43° S
Cosmos 2180 Rocket 4.4 02:03:22 39° S 02:05:50 86° E 02:12:01 10° N
USA 229 DEB 4.4 02:05:21 28° SSE 02:08:12 42° ESE 02:14:31 10° NE
USA 229 4.4 02:05:27 28° SSE 02:08:17 42° ESE 02:14:34 10° NE
Cosmos 2279 Rocket 4.0 02:09:05 42° SSW 02:11:16 70° W 02:17:28 10° N
Cosmos 2263 Rocket 4.0 02:07:55 13° SSE 02:11:29 23° ESE 02:15:46 10° NE
Cosmos 923 Rocket 3.9 02:07:17 10° NNW 02:12:37 74° WSW 02:14:41 38° S
Cosmos 158 Rocket 4.0 02:07:17 10° NNW 02:12:42 87° ENE 02:16:10 23° SSE
Cosmos 2026 Rocket 4.5 02:07:33 10° NNW 02:13:09 40° W 02:14:27 36° WSW
Cosmos 2297 Rocket 2.8 02:12:41 35° WSW 02:14:32 46° WNW 02:19:59 10° NNE
Cosmos 1626 1.9 02:12:47 10° NNW 02:16:31 78° W 02:16:34 77° WSW
Cosmos 2219 4.0 02:14:36 30° W 02:16:32 39° NW 02:21:48 10° NNE
Cosmos 1766 3.6 02:17:11 47° WNW 02:17:11 47° WNW 02:20:58 10° N
NOSS 3-1 (A) 4.4 02:16:55 22° SSE 02:19:33 33° ESE 02:24:55 10° NE
Cosmos 2098 Rocket 3.8 02:15:39 10° N 02:20:32 74° E 02:25:09 18° SSE
Meteor 1-22 Rocket 4.0 02:19:29 42° SSW 02:21:20 80° W 02:26:40 10° N
Meteor 1-28 Rocket 4.2 02:20:46 19° SE 02:23:13 45° ENE 02:26:52 10° N
Cosmos 2237 Rocket 3.4 02:22:25 10° NW 02:26:18 23° W 02:26:18 23° W
H-2A R/B 4.3 02:27:06 10° ESE 02:30:22 23° ENE 02:33:38 10° NNE
Cosmos 1470 2.8 02:32:06 43° S 02:33:19 78° E 02:37:19 10° NNE
Cosmos 1544 Rocket 3.6 02:37:12 31° S 02:39:18 77° E 02:43:48 10° NNE
COBE Rocket 4.1 02:39:56 37° SW 02:41:05 44° W 02:45:33 10° NNW
Cosmos 1607 4.1 02:37:09 10° NW 02:43:25 54° WSW 02:49:39 10° SSE
SL-16 R/B 3.5 02:45:05 25° WSW 02:46:25 27° W 02:51:36 10° NW
FALCON 9 DEB 3.3 02:44:16 10° NW 02:47:46 73° NNE 02:51:14 10° ESE
USA 215 3.3 02:43:13 10° NE 02:49:47 83° NW 02:54:08 23° WSW
IRS-P3 4.1 02:47:15 10° N 02:52:37 74° WNW 02:55:46 25° SSW
Resurs 1-4 Rocket 3.5 02:49:05 10° N 02:53:17 25° WNW 02:55:29 19° W
Okean 1-7 Rocket 3.8 02:49:50 10° NNW 02:54:06 49° W 02:55:58 29° SSW
SL-14 R/B 4.1 02:50:58 10° NNW 02:54:26 30° W 02:54:46 30° WSW
Cosmos 1943 3.9 02:52:52 10° NNW 02:58:26 57° ENE 03:03:57 10° SE
Cosmos 1602 Rocket 3.9 02:54:41 10° N 02:59:03 64° E 03:03:20 10° SSE
Cosmos 2266 Rocket 4.2 02:57:22 10° NNW 03:03:31 52° W 03:08:13 17° SSW
Cosmos 2227 Rocket 3.6 03:00:53 16° W 03:04:11 26° NW 03:08:52 10° N
Cosmos 2112 Rocket 4.5 03:01:50 10° NW 03:06:38 38° WSW 03:09:48 19° SSW
Cosmos 1758 3.7 03:09:52 26° SW 03:11:44 46° WNW 03:15:38 10° N
Meteor 1-21 Rocket 4.2 03:06:53 10° N 03:12:28 89° WSW 03:18:00 10° S
Cosmos 1937 Rocket 3.7 03:09:43 22° SW 03:13:06 62° WNW 03:18:24 10° NNE
ERS-2 3.1 03:11:14 10° SSE 03:14:45 49° ENE 03:18:18 10° N
MSX 4.2 03:10:42 10° NNE 03:16:26 63° ESE 03:22:09 10° S
CSL-04 DEB 4.3 03:12:41 10° SSE 03:16:36 85° ENE 03:20:33 10° NNW
Cosmos 2227 4.3 03:12:18 17° SSW 03:16:49 84° ESE 03:22:37 10° NNE
NOSS 2-3 (E) 3.6 03:14:35 22° SSW 03:17:20 81° SE 03:22:19 10° NE
CZ-2C R/B 3.1 03:13:36 10° NNE 03:17:28 63° E 03:21:02 11° S
Cosmos 1726 2.1 03:16:22 21° SSW 03:18:40 66° W 03:22:19 10° N
ARIANE 5 R/B 2.7 03:13:52 10° N 03:19:01 61° WNW 03:23:01 17° SSW
SJ 16-02 3.0 03:17:05 16° W 03:19:12 22° WNW 03:22:38 10° N
Cosmos 1898 Rocket 4.1 03:16:03 20° WSW 03:19:13 41° WNW 03:24:11 10° N
CZ-4B R/B 4.4 03:18:32 10° ESE 03:20:51 18° ENE 03:23:08 10° NNE
Meteor 2-14 Rocket 4.4 03:15:06 10° NNW 03:21:09 72° W 03:27:10 10° S
USA 267 3.2 03:15:27 10° SE 03:21:59 81° SW 03:28:34 10° NW
Nadezhda 2 Rocket 4.4 03:17:49 10° N 03:24:05 79° W 03:30:13 10° S
CZ-4C R/B 2.9 03:21:16 10° SSE 03:24:29 81° ENE 03:27:48 10° N
NOSS 3-1 (C) 3.6 03:20:59 18° WSW 03:25:03 60° NW 03:31:27 10° NE
Cosmos 1340 Rocket 3.8 03:24:06 20° WSW 03:26:05 31° WNW 03:29:39 10° N
IDEFIX/ARIANE 42P 2.6 03:23:45 10° N 03:28:57 74° WNW 03:33:57 11° SSW
Cosmos 1908 3.6 03:26:31 10° S 03:30:22 66° E 03:34:17 10° NNE
Cosmos 1455 Rocket 4.5 03:28:31 17° WSW 03:30:40 23° WNW 03:34:17 10° NNW
Cosmos 1626 Rocket 3.9 03:27:22 10° NNW 03:31:28 42° W 03:35:31 10° SSW
Meteor 1-16 Rocket 4.2 03:26:52 10° S 03:32:13 87° E 03:37:46 10° NNE
SL-08 R/B 4.2 03:28:36 14° SSW 03:32:14 32° W 03:36:41 10° NNW
Cosmos 1461 4.2 03:29:10 15° W 03:32:15 32° NW 03:36:22 10° NNE
SL-4 R/B 2.6 03:30:22 14° W 03:32:26 24° SW 03:35:15 10° SSE
Cosmos 372 Rocket 4.0 03:27:54 13° SSW 03:32:37 86° WNW 03:37:54 10° NNE
Landsat 5 3.3 03:28:49 10° SSE 03:32:42 86° WSW 03:36:45 10° NNW
Cosmos 1953 2.6 03:30:43 16° SSW 03:33:46 52° WNW 03:37:45 10° N
ATLAS CENTAUR R/B 3.2 03:30:52 10° S 03:34:20 25° ESE 03:37:39 10° ENE
CZ-2D R/B 4.2 03:33:14 10° NNW 03:35:35 13° NW 03:37:56 10° W
CZ-2C R/B 3.4 03:31:38 10° NNE 03:35:59 42° E 03:40:21 10° S
SL-16 R/B 3.6 03:32:20 10° WNW 03:36:05 18° W 03:38:31 14° SW
CZ-2D R/B 3.8 03:33:51 10° N 03:37:45 46° WNW 03:40:58 14° SW
Cosmos 724 4.4 03:32:05 10° NW 03:37:57 56° WSW 03:43:54 10° SSE
ADEOS II 3.4 03:34:34 10° N 03:38:44 24° WNW 03:42:21 12° WSW
NOSS 2-3 (D) 3.7 03:37:43 15° SW 03:41:12 70° NW 03:46:14 10° NE
Cosmos 2228 3.3 03:44:42 10° S 03:49:02 72° E 03:53:26 10° NNE
Cosmos 1758 Rocket 3.5 03:45:48 10° NNW 03:50:07 73° W 03:54:25 10° S
Cosmos 1125 Rocket 4.0 03:45:21 10° S 03:50:28 60° ESE 03:55:40 10° NNE
Cosmos 1328 3.7 03:48:58 10° NNW 03:52:57 74° W 03:56:56 10° S
Cosmos 2263 Rocket 2.4 03:49:38 11° SW 03:54:59 56° WNW 04:00:29 10° NNE
Aureole 3 4.4 03:53:32 10° S 03:58:41 85° E 04:05:14 10° N
USA 229 DEB 4.2 03:52:48 10° WSW 03:59:04 48° NW 04:05:47 10° NNE
USA 229 4.2 03:52:53 10° WSW 03:59:08 48° NW 04:05:50 10° NNE
ATLAS 3B CENTAUR R/B 4.3 03:54:23 10° WSW 04:00:26 17° SSW 04:04:25 10° S
Cosmos 1703 3.5 03:56:48 10° NNW 04:00:39 49° W 04:04:29 10° S
Cosmos 494 Rocket 4.3 03:59:48 10° NNW 04:04:58 75° ENE 04:10:09 10° SSE
H-2A R/B 2.6 04:02:27 10° SSW 04:06:12 33° W 04:09:56 10° NNW
ADEOS Rocket 4.2 04:00:24 10° SSE 04:07:54 67° ENE 04:15:37 10° N
SAR-Lupe-1 4.4 04:04:36 10° SSE 04:08:11 72° ENE 04:11:46 10° N
Cosmos 1300 3.3 04:05:19 10° S 04:09:04 59° E 04:12:50 10° NNE
NOSS 2-3 (C) 4.5 04:05:28 10° WSW 04:09:37 42° NW 04:14:33 10° NNE
NOSS 3-1 (A) 3.9 04:04:42 10° WSW 04:10:06 50° NW 04:16:26 10° NNE
Cosmos 2298 Rocket 4.3 04:06:13 10° SW 04:11:26 56° WNW 04:16:42 10° NNE
Cosmos 1825 Rocket 3.7 04:07:56 10° NNW 04:12:10 53° W 04:16:22 10° S
Cosmos 2285 Rocket 4.1 04:08:42 10° SSW 04:14:57 64° WNW 04:21:14 10° NNE
Cosmos 1603 4.4 04:11:08 10° NW 04:16:08 31° WSW 04:21:04 10° SSW
